Location: ČR
(50.0000°N, 15.0000°E)
Time: 06:55:12
(UTC+02:00)

A-11 Canister half - Pass Details

Date: 15 March 2026
Orbit: 1514 x 1685 km, 47.2° (Epoch: 18 April)

Event Time Altitude Azimuth Distance (km) Brightness Sun altitude
Rises 18:04:44 0° 277° (W) 4,914 14.2 -0.8°
Reaches altitude 10° 18:07:54 10° 275° (W) 3,937 13.3 -1.3°
Maximum altitude 18:17:58 71° 195° (SSW) 1,768 9.5 -2.9°
Drops below altitude 10° 18:28:00 10° 114° (ESE) 3,925 10.6 -4.6°
Enters shadow 18:30:17 - 113° (ESE) 4,629 10.9 -4.9°
Sets 18:31:09 0° 113° (ESE) 4,897 - -5.1°
